TimeAKST,TemperatureF,Dew PointF,Humidity,Sea Level PressureIn,VisibilityMPH,Wind Direction,Wind SpeedMPH,Gust SpeedMPH,PrecipitationIn,Events,Conditions,WindDirDegrees,DateUTC
12:16 AM,35.6,24.8,65,29.43,10.0,SW,5.8,-,N/A,,Overcast,230,2012-11-20 09:16:00
12:36 AM,35.6,24.8,65,29.43,10.0,SW,6.9,-,N/A,,Overcast,220,2012-11-20 09:36:00
12:56 AM,33.8,24.8,70,29.44,10.0,WSW,9.2,-,N/A,,Overcast,250,2012-11-20 09:56:00
1:16 AM,35.6,24.8,65,29.46,10.0,WSW,6.9,-,N/A,,Overcast,240,2012-11-20 10:16:00
1:36 AM,35.6,19.4,52,29.47,10.0,ENE,5.8,-,N/A,,Overcast,70,2012-11-20 10:36:00
1:56 AM,33.8,24.8,70,29.48,10.0,NNW,4.6,-,N/A,,Overcast,330,2012-11-20 10:56:00
2:16 AM,33.8,24.8,70,29.49,10.0,Calm,Calm,-,N/A,,Overcast,0,2012-11-20 11:16:00
2:36 AM,33.8,26.6,75,29.49,10.0,Calm,Calm,-,N/A,,Overcast,0,2012-11-20 11:36:00
2:56 AM,35.6,23.0,60,29.50,10.0,WSW,3.5,-,N/A,,Overcast,250,2012-11-20 11:56:00
3:16 AM,35.6,21.2,56,29.50,10.0,Calm,Calm,-,N/A,,Overcast,0,2012-11-20 12:16:00
3:36 AM,33.8,23.0,65,29.51,10.0,West,3.5,-,N/A,,Overcast,280,2012-11-20 12:36:00
3:56 AM,33.8,24.8,70,29.51,10.0,SSW,6.9,-,N/A,,Overcast,200,2012-11-20 12:56:00
4:16 AM,33.8,24.8,70,29.51,10.0,Calm,Calm,-,N/A,,Overcast,0,2012-11-20 13:16:00
4:36 AM,33.8,24.8,70,29.52,10.0,West,9.2,-,N/A,,Overcast,260,2012-11-20 13:36:00
4:56 AM,33.8,26.6,75,29.52,10.0,Calm,Calm,-,N/A,,Overcast,0,2012-11-20 13:56:00
5:16 AM,32.0,26.6,80,29.53,10.0,WSW,3.5,-,N/A,,Overcast,250,2012-11-20 14:16:00
5:36 AM,33.8,24.8,70,29.53,10.0,ESE,3.5,-,N/A,,Overcast,110,2012-11-20 14:36:00
5:56 AM,32.0,24.8,75,29.53,10.0,Calm,Calm,-,N/A,,Scattered Clouds,0,2012-11-20 14:56:00
6:16 AM,30.2,24.8,80,29.53,10.0,Calm,Calm,-,N/A,,Scattered Clouds,0,2012-11-20 15:16:00
6:36 AM,30.2,24.8,80,29.53,10.0,Calm,Calm,-,N/A,,Scattered Clouds,0,2012-11-20 15:36:00
6:56 AM,28.4,24.8,86,29.53,10.0,Calm,Calm,-,N/A,,Partly Cloudy,0,2012-11-20 15:56:00
7:16 AM,28.4,24.8,86,29.53,10.0,SW,3.5,-,N/A,,Partly Cloudy,220,2012-11-20 16:16:00
7:36 AM,28.4,24.8,86,29.53,10.0,SSW,3.5,-,N/A,,Partly Cloudy,200,2012-11-20 16:36:00
7:56 AM,28.4,24.8,86,29.53,10.0,Calm,Calm,-,N/A,,Partly Cloudy,0,2012-11-20 16:56:00
8:16 AM,28.4,24.8,86,29.52,10.0,Calm,Calm,-,N/A,,Partly Cloudy,0,2012-11-20 17:16:00
8:36 AM,28.4,24.8,86,29.52,10.0,Calm,Calm,-,N/A,,Partly Cloudy,0,2012-11-20 17:36:00
8:56 AM,28.4,24.8,86,29.51,10.0,SSW,3.5,-,N/A,,Clear,200,2012-11-20 17:56:00
9:16 AM,28.4,24.8,86,29.51,10.0,SSW,4.6,-,N/A,,Clear,200,2012-11-20 18:16:00
9:36 AM,30.2,24.8,80,29.51,10.0,Calm,Calm,-,N/A,,Clear,0,2012-11-20 18:36:00
9:56 AM,28.4,24.8,86,29.52,10.0,Calm,Calm,-,N/A,,Partly Cloudy,0,2012-11-20 18:56:00
10:16 AM,28.4,24.8,86,29.52,10.0,Calm,Calm,-,N/A,,Partly Cloudy,0,2012-11-20 19:16:00
10:36 AM,30.2,24.8,80,29.52,10.0,Calm,Calm,-,N/A,,Partly Cloudy,0,2012-11-20 19:36:00
11:16 AM,30.2,26.6,86,29.51,10.0,Calm,Calm,-,N/A,,Partly Cloudy,0,2012-11-20 20:16:00
11:36 AM,30.2,24.8,80,29.51,10.0,ESE,3.5,-,N/A,,Partly Cloudy,120,2012-11-20 20:36:00
11:56 AM,33.8,24.8,70,29.50,10.0,Calm,Calm,-,N/A,,Partly Cloudy,0,2012-11-20 20:56:00
12:16 PM,32.0,24.8,75,29.50,10.0,Calm,Calm,-,N/A,,Partly Cloudy,0,2012-11-20 21:16:00
12:36 PM,32.0,24.8,75,29.49,10.0,Calm,Calm,-,N/A,,Partly Cloudy,0,2012-11-20 21:36:00
1:16 PM,-9999,-9999,N/A,-9999,10.0,North,-9999.0,-,N/A,,Partly Cloudy,0,2012-11-20 22:16:00
1:36 PM,30.2,24.8,80,29.47,10.0,Calm,Calm,-,N/A,,Partly Cloudy,0,2012-11-20 22:36:00
1:56 PM,30.2,24.8,80,29.46,10.0,Calm,Calm,-,N/A,,Partly Cloudy,0,2012-11-20 22:56:00
2:16 PM,30.2,23.0,75,29.47,10.0,Calm,Calm,-,N/A,,Partly Cloudy,0,2012-11-20 23:16:00
2:36 PM,30.2,23.0,75,29.46,10.0,Calm,Calm,-,N/A,,Partly Cloudy,0,2012-11-20 23:36:00
2:56 PM,30.2,23.0,75,29.45,10.0,Calm,Calm,-,N/A,,Overcast,0,2012-11-20 23:56:00
3:16 PM,28.4,24.8,86,29.45,10.0,Calm,Calm,-,N/A,,Overcast,0,2012-11-21 00:16:00
3:36 PM,28.4,23.0,80,29.45,10.0,Calm,Calm,-,N/A,,Overcast,0,2012-11-21 00:36:00
3:56 PM,28.4,24.8,86,29.44,10.0,Calm,Calm,-,N/A,,Overcast,0,2012-11-21 00:56:00
4:16 PM,28.4,21.2,74,29.44,10.0,SSE,3.5,-,N/A,,Overcast,150,2012-11-21 01:16:00
4:36 PM,28.4,24.8,86,29.44,10.0,Calm,Calm,-,N/A,,Overcast,0,2012-11-21 01:36:00
4:56 PM,28.4,24.8,86,29.43,10.0,Calm,Calm,-,N/A,,Clear,0,2012-11-21 01:56:00
5:16 PM,28.4,23.0,80,29.44,10.0,SSW,4.6,-,N/A,,Clear,210,2012-11-21 02:16:00
5:36 PM,28.4,24.8,86,29.44,10.0,SSW,3.5,-,N/A,,Clear,210,2012-11-21 02:36:00
5:56 PM,30.2,23.0,75,29.43,10.0,Calm,Calm,-,N/A,,Clear,0,2012-11-21 02:56:00
6:16 PM,28.4,23.0,80,29.43,10.0,SSE,4.6,-,N/A,,Clear,150,2012-11-21 03:16:00
6:36 PM,28.4,23.0,80,29.43,10.0,South,3.5,-,N/A,,Clear,190,2012-11-21 03:36:00
6:56 PM,28.4,23.0,80,29.43,10.0,Calm,Calm,-,N/A,,Clear,0,2012-11-21 03:56:00
7:16 PM,26.6,24.8,93,29.43,10.0,Calm,Calm,-,N/A,,Clear,0,2012-11-21 04:16:00
7:36 PM,28.4,24.8,86,29.43,10.0,Calm,Calm,-,N/A,,Clear,0,2012-11-21 04:36:00
7:56 PM,28.4,24.8,86,29.43,10.0,Calm,Calm,-,N/A,,Overcast,0,2012-11-21 04:56:00
8:16 PM,28.4,24.8,86,29.43,10.0,SW,3.5,-,N/A,,Overcast,230,2012-11-21 05:16:00
8:36 PM,28.4,24.8,86,29.43,10.0,SW,4.6,-,N/A,,Overcast,220,2012-11-21 05:36:00
8:56 PM,30.2,24.8,80,29.44,10.0,SW,5.8,-,N/A,,Overcast,230,2012-11-21 05:56:00
9:16 PM,30.2,24.8,80,29.44,10.0,WSW,5.8,-,N/A,,Overcast,240,2012-11-21 06:16:00
9:36 PM,30.2,24.8,80,29.43,10.0,SSW,4.6,-,N/A,,Overcast,210,2012-11-21 06:36:00
9:56 PM,30.2,24.8,80,29.44,10.0,SSW,4.6,-,N/A,,Overcast,200,2012-11-21 06:56:00
10:16 PM,28.4,24.8,86,29.44,10.0,SSW,4.6,-,N/A,,Overcast,200,2012-11-21 07:16:00
10:36 PM,28.4,24.8,86,29.44,10.0,Calm,Calm,-,N/A,,Overcast,0,2012-11-21 07:36:00
10:56 PM,28.4,24.8,86,29.45,10.0,Calm,Calm,-,N/A,,Overcast,0,2012-11-21 07:56:00
11:16 PM,28.4,24.8,86,29.45,10.0,Calm,Calm,-,N/A,,Overcast,0,2012-11-21 08:16:00
11:36 PM,30.2,24.8,80,29.46,10.0,SW,3.5,-,N/A,,Overcast,220,2012-11-21 08:36:00
11:56 PM,30.2,24.8,80,29.47,10.0,SW,3.5,-,N/A,,Overcast,220,2012-11-21 08:56:00